JIA5255 KMAF-KDFW

Flight info

Callsign JIA5255
Flight time N/A
Altitude 33000
Route GEEKY SHMPP3
Aircraft CRJ7/M-SDFGIRWY/S

Departure

Time 2026-04-30 14:39
Airport Midland International Air and Space Port (KMAF)

Arrival

Time N/A
Airport Dallas Fort Worth International Airport (KDFW)
Time Latitude Longitude Altitude Speed Heading
2026-04-30 14:17 31.93701 -102.20710 2857 ft 0 kts 268°
2026-04-30 14:28 31.93701 -102.20695 2856 ft 2 kts 268°
2026-04-30 14:28 31.93702 -102.20678 2856 ft 2 kts 272°
2026-04-30 14:28 31.93698 -102.20661 2856 ft 2 kts 299°
2026-04-30 14:28 31.93688 -102.20647 2856 ft 2 kts 323°
2026-04-30 14:29 31.93668 -102.20639 2856 ft 0 kts 357°
2026-04-30 14:32 31.93675 -102.20640 2856 ft 0 kts 357°
2026-04-30 14:34 31.93710 -102.20628 2856 ft 10 kts 37°
2026-04-30 14:34 31.93777 -102.20558 2856 ft 13 kts 30°
2026-04-30 14:35 31.94048 -102.20563 2857 ft 21 kts 356°
2026-04-30 14:35 31.94200 -102.20579 2858 ft 21 kts 354°
2026-04-30 14:35 31.94283 -102.20622 2859 ft 10 kts 273°
2026-04-30 14:36 31.94306 -102.20770 2859 ft 21 kts 295°
2026-04-30 14:36 31.94366 -102.20930 2861 ft 21 kts 294°
2026-04-30 14:36 31.94427 -102.21088 2862 ft 21 kts 292°
2026-04-30 14:36 31.94487 -102.21252 2864 ft 21 kts 293°
2026-04-30 14:37 31.94546 -102.21410 2865 ft 21 kts 294°
2026-04-30 14:37 31.94605 -102.21570 2867 ft 21 kts 294°
2026-04-30 14:37 31.94640 -102.21656 2868 ft 3 kts 314°
2026-04-30 14:37 31.94684 -102.21681 2869 ft 15 kts 12°
2026-04-30 14:38 31.94742 -102.21592 2868 ft 15 kts 91°
2026-04-30 14:38 31.94614 -102.21229 2865 ft 91 kts 114°
2026-04-30 14:38 31.94254 -102.20273 2931 ft 156 kts 113°
2026-04-30 14:38 31.93736 -102.19010 3339 ft 186 kts 115°
2026-04-30 14:39 31.93162 -102.17693 4300 ft 175 kts 118°
2026-04-30 14:39 31.92860 -102.16431 5166 ft 174 kts 85°
2026-04-30 14:39 31.93362 -102.15078 5766 ft 189 kts 48°
2026-04-30 14:40 31.95169 -102.12537 7048 ft 224 kts 48°
2026-04-30 14:40 31.95993 -102.10882 7734 ft 246 kts 64°
2026-04-30 14:40 31.96545 -102.08912 8449 ft 267 kts 73°
2026-04-30 14:40 31.96969 -102.06728 9184 ft 286 kts 76°
2026-04-30 14:41 31.97353 -102.04368 9891 ft 304 kts 79°
2026-04-30 14:41 31.97708 -102.01845 10594 ft 321 kts 79°
2026-04-30 14:41 31.98098 -101.99200 11275 ft 336 kts 79°
2026-04-30 14:41 31.98530 -101.96454 11942 ft 350 kts 78°
2026-04-30 14:42 31.98988 -101.93613 12589 ft 362 kts 80°
2026-04-30 14:42 31.99438 -101.90649 13241 ft 373 kts 81°
2026-04-30 14:42 31.99888 -101.87629 13896 ft 382 kts 81°
2026-04-30 14:42 32.00352 -101.84503 14549 ft 391 kts 81°
2026-04-30 14:43 32.00826 -101.81323 15199 ft 399 kts 81°
2026-04-30 14:43 32.01302 -101.78122 15837 ft 405 kts 81°
2026-04-30 14:43 32.01793 -101.74810 16494 ft 411 kts 82°
2026-04-30 14:43 32.02281 -101.71501 17115 ft 417 kts 82°
2026-04-30 14:44 32.02784 -101.68110 17752 ft 422 kts 82°
2026-04-30 14:44 32.03284 -101.64686 18369 ft 427 kts 82°
2026-04-30 14:44 32.03788 -101.61257 19000 ft 431 kts 81°
2026-04-30 14:44 32.04297 -101.57780 19631 ft 434 kts 81°
2026-04-30 14:45 32.04810 -101.54266 20220 ft 437 kts 81°
2026-04-30 14:45 32.05328 -101.50739 20768 ft 441 kts 80°
2026-04-30 14:45 32.05848 -101.47159 21300 ft 445 kts 80°
2026-04-30 14:45 32.06373 -101.43555 21866 ft 448 kts 79°
2026-04-30 14:46 32.06895 -101.39978 22375 ft 451 kts 79°
2026-04-30 14:46 32.07424 -101.36322 22888 ft 454 kts 79°
2026-04-30 14:46 32.07966 -101.32617 23282 ft 461 kts 80°
2026-04-30 14:46 32.08507 -101.28866 23581 ft 469 kts 79°
2026-04-30 14:47 32.09049 -101.25085 23902 ft 475 kts 79°
2026-04-30 14:47 32.09607 -101.21231 24241 ft 481 kts 79°
2026-04-30 14:47 32.10167 -101.17317 24585 ft 487 kts 79°
2026-04-30 14:47 32.10734 -101.13370 24923 ft 492 kts 80°
2026-04-30 14:48 32.11304 -101.09379 25265 ft 497 kts 80°
2026-04-30 14:48 32.11880 -101.05334 25603 ft 502 kts 79°
2026-04-30 14:48 32.12455 -101.01298 25943 ft 506 kts 80°
2026-04-30 14:48 32.13040 -100.97155 26289 ft 511 kts 80°
2026-04-30 14:49 32.13620 -100.93069 26650 ft 514 kts 80°
2026-04-30 14:49 32.14211 -100.88860 27006 ft 518 kts 80°
2026-04-30 14:49 32.14800 -100.84680 27341 ft 522 kts 80°
2026-04-30 14:49 32.15395 -100.80461 27667 ft 527 kts 80°
2026-04-30 14:50 32.16595 -100.71875 28318 ft 534 kts 80°
2026-04-30 14:50 32.17189 -100.67601 28678 ft 535 kts 80°
2026-04-30 14:51 32.18386 -100.58957 29487 ft 535 kts 80°
2026-04-30 14:51 32.18990 -100.54608 29904 ft 536 kts 80°
2026-04-30 14:51 32.20182 -100.45967 30630 ft 539 kts 80°
2026-04-30 14:52 32.20785 -100.41561 30974 ft 540 kts 80°
2026-04-30 14:52 32.21980 -100.32819 31518 ft 544 kts 81°
2026-04-30 14:52 32.22583 -100.28419 31630 ft 548 kts 81°
2026-04-30 14:53 32.23782 -100.19520 31860 ft 551 kts 81°
2026-04-30 14:53 32.24384 -100.15099 31982 ft 551 kts 81°
2026-04-30 14:54 32.25579 -100.06177 32328 ft 551 kts 81°
2026-04-30 14:54 32.26770 -99.97277 32778 ft 550 kts 81°
2026-04-30 14:55 32.27924 -99.88348 33025 ft 555 kts 84°
2026-04-30 14:55 32.28208 -99.83806 32990 ft 558 kts 86°
2026-04-30 14:56 32.29159 -99.65820 33036 ft 542 kts 86°
2026-04-30 14:57 32.29849 -99.52565 33054 ft 542 kts 86°
2026-04-30 14:58 32.30753 -99.34706 33055 ft 544 kts 86°
2026-04-30 14:58 32.31413 -99.21387 33027 ft 543 kts 86°
2026-04-30 15:00 32.32486 -98.99000 33043 ft 546 kts 86°
2026-04-30 15:01 32.33326 -98.81223 33033 ft 551 kts 86°
2026-04-30 15:01 32.33939 -98.67864 32277 ft 541 kts 86°
2026-04-30 15:02 32.34140 -98.63474 31830 ft 543 kts 86°
2026-04-30 15:02 32.34334 -98.59093 31399 ft 531 kts 87°
2026-04-30 15:03 32.34919 -98.45890 30131 ft 527 kts 87°
2026-04-30 15:03 32.35286 -98.37376 29262 ft 517 kts 87°
2026-04-30 15:04 32.35646 -98.28984 28356 ft 510 kts 87°
2026-04-30 15:04 32.36147 -98.16634 27062 ft 499 kts 88°
2026-04-30 15:05 32.36636 -98.04474 25785 ft 483 kts 88°
2026-04-30 15:06 32.36942 -97.96735 24867 ft 460 kts 87°
2026-04-30 15:06 32.37225 -97.89335 23965 ft 461 kts 88°
2026-04-30 15:07 32.37539 -97.81486 23196 ft 487 kts 88°
2026-04-30 15:07 32.37830 -97.73885 22306 ft 444 kts 88°
2026-04-30 15:08 32.38477 -97.66596 21437 ft 449 kts 74°
2026-04-30 15:08 32.42628 -97.57291 20173 ft 405 kts 41°
2026-04-30 15:09 32.46497 -97.53004 19325 ft 376 kts 36°
2026-04-30 15:09 32.49923 -97.48368 18409 ft 382 kts 55°
2026-04-30 15:10 32.51711 -97.42469 17569 ft 379 kts 81°
2026-04-30 15:11 32.53706 -97.30827 15198 ft 343 kts 73°
2026-04-30 15:11 32.54892 -97.25530 13987 ft 327 kts 72°
2026-04-30 15:12 32.56590 -97.17959 12172 ft 312 kts 73°
2026-04-30 15:13 32.57681 -97.13063 10957 ft 305 kts 73°
2026-04-30 15:14 32.58262 -97.03574 8583 ft 291 kts 115°
2026-04-30 15:14 32.53864 -96.99852 6868 ft 268 kts 176°
2026-04-30 15:16 32.49058 -97.05183 4235 ft 244 kts 316°
2026-04-30 15:17 32.55051 -97.05830 3514 ft 219 kts
2026-04-30 15:18 32.62648 -97.05637 2834 ft 218 kts
2026-04-30 15:19 32.67230 -97.05593 2874 ft 220 kts